{"data":{"norad_id":66794,"intl_designator":"2025-278D","name":"STARLINK-36062","alt_names":[],"object_type":"PAYLOAD","status":"ACTIVE","operator":null,"country":"US","launch_date":"2025-12-01","launch_site_code":"AFETR","launch_vehicle":null,"mission":null,"orbit_class":"UNKNOWN","rcs_meters":null,"size_class":null,"mass_kg":null,"dimensions":null,"purposes":["comms"],"wikipedia_slug":null,"has_3d_model":false,"image_url":null,"decayed_at":null,"tle_current":{"epoch":"2026-09-20T21:55:39.963072Z","epoch_age_seconds":51011,"freshness":"FRESH","line1":"1 66794U 25278D   26263.91365698  .00010084  00000+0  37545-3 0  9991","line2":"2 66794  43.0024  92.0596 0001311 281.2876  78.7828 15.27581145 45062","mean_motion":15.27581145,"eccentricity":0.0001311,"inclination_deg":43.0024,"raan_deg":92.0596,"arg_perigee_deg":281.2876,"mean_anomaly_deg":78.7828,"bstar":0.00037545,"rev_number":4506,"period_min":94.266678055914,"perigee_km":482.14616645217,"apogee_km":483.94516854759,"semimajor_km":6861.1826674999,"source":"CELESTRAK","updated_at":"2026-09-21T09:00:36.013951Z"}}}